When you browse on this site, cookies collect data to enhance your experience and personalize the content and advertising you see.
Visit our Privacy Policy to learn more. By continuing to use the site, you agree to this use of cookies and data.
  • In France
  • List of Countries
  • For 7 days
  • Water Temperature
  • Weather Map
  • Weather Widgets
  • user-avatar
    Login

    Hourly Weather Klonna

    Today, 21 February, Friday

    Time Temperature Precipitation Wind Pressure Humidity
    00:00 0°C° 0 mm 5 mps 749 mmHg 78%
    01:00 0°C° 0 mm 5 mps 748 mmHg 78%
    02:00 -1°C° 0 mm 6 mps 747 mmHg 76%
    03:00 -1°C° 0 mm 6 mps 747 mmHg 73%
    04:00 +1°C° 0 mm 6 mps 746 mmHg 71%
    05:00 +1°C° 0 mm 6 mps 745 mmHg 72%
    06:00 +1°C° 0 mm 6 mps 745 mmHg 72%
    07:00 +1°C° 0 mm 6 mps 744 mmHg 72%
    14:00 +2°C° 0 mm 8 mps 748 mmHg 64%
    15:00 +2°C° 0 mm 8 mps 749 mmHg 61%
    16:00 +3°C° 0 mm 7 mps 749 mmHg 59%
    17:00 +3°C° 0 mm 6 mps 750 mmHg 64%
    18:00 +2°C° 0 mm 6 mps 751 mmHg 69%
    19:00 +1°C° 0 mm 5 mps 752 mmHg 75%
    20:00 +1°C° 0 mm 4 mps 752 mmHg 77%
    21:00 0°C° 0 mm 4 mps 753 mmHg 79%
    22:00 0°C° 0 mm 4 mps 753 mmHg 82%
    23:00 0°C° 0 mm 4 mps 753 mmHg 83%

    Tomorrow, 22 February, Saturday

    Time Temperature Precipitation Wind Pressure Humidity
    00:00 -1°C° 0 mm 4 mps 754 mmHg 85%
    01:00 -1°C° 0 mm 4 mps 754 mmHg 86%
    02:00 -1°C° 0 mm 4 mps 754 mmHg 87%
    03:00 -1°C° 0 mm 4 mps 753 mmHg 88%
    04:00 -1°C° 0 mm 4 mps 753 mmHg 88%
    05:00 -1°C° 0 mm 4 mps 753 mmHg 86%
    06:00 -1°C° 0 mm 5 mps 753 mmHg 84%
    07:00 -1°C° 0 mm 5 mps 753 mmHg 82%
    08:00 -1°C° 0 mm 6 mps 752 mmHg 75%
    09:00 +2°C° 0 mm 7 mps 752 mmHg 67%
    10:00 +3°C° 0 mm 7 mps 751 mmHg 60%
    11:00 +4°C° 0 mm 8 mps 750 mmHg 60%
    12:00 +4°C° 0 mm 8 mps 749 mmHg 60%
    13:00 +5°C° 0 mm 9 mps 749 mmHg 60%
    14:00 +5°C° 0 mm 9 mps 748 mmHg 58%
    15:00 +5°C° 0 mm 8 mps 747 mmHg 56%
    16:00 +6°C° 0 mm 8 mps 746 mmHg 54%
    17:00 +6°C° 0 mm 9 mps 746 mmHg 54%
    18:00 +6°C° 0 mm 9 mps 745 mmHg 55%
    19:00 +6°C° 0 mm 9 mps 745 mmHg 55%
    20:00 +6°C° 0 mm 9 mps 745 mmHg 55%
    21:00 +6°C° 0 mm 9 mps 744 mmHg 54%
    22:00 +7°C° 0 mm 9 mps 744 mmHg 54%
    23:00 +6°C° 0.2 mm 9 mps 744 mmHg 63%

    Day after tomorrow, 23 February, Sunday

    Time Temperature Precipitation Wind Pressure Humidity
    00:00 +5°C° 0.2 mm 9 mps 744 mmHg 72%
    01:00 +3°C° 0.2 mm 9 mps 744 mmHg 80%
    02:00 +3°C° 0.4 mm 9 mps 744 mmHg 79%
    03:00 +2°C° 0.4 mm 8 mps 744 mmHg 78%
    04:00 +2°C° 0.4 mm 8 mps 745 mmHg 76%
    05:00 +1°C° 0 mm 8 mps 745 mmHg 76%
    06:00 +2°C° 0 mm 7 mps 745 mmHg 75%
    07:00 +2°C° 0 mm 7 mps 746 mmHg 74%
    08:00 +2°C° 0 mm 7 mps 746 mmHg 74%
    09:00 +2°C° 0 mm 7 mps 746 mmHg 73%
    10:00 +1°C° 0 mm 8 mps 746 mmHg 73%
    11:00 +2°C° 0 mm 8 mps 746 mmHg 68%
    12:00 +2°C° 0 mm 8 mps 746 mmHg 64%
    13:00 +4°C° 0 mm 8 mps 745 mmHg 60%
    14:00 +3°C° 0.3 mm 7 mps 745 mmHg 69%
    15:00 +2°C° 0.3 mm 6 mps 744 mmHg 79%
    16:00 +2°C° 0.3 mm 5 mps 743 mmHg 89%
    17:00 +2°C° 0.5 mm 5 mps 742 mmHg 90%
    18:00 +2°C° 0.5 mm 5 mps 741 mmHg 92%
    19:00 +2°C° 0.5 mm 5 mps 740 mmHg 94%
    20:00 +1°C° 1.5 mm 4 mps 738 mmHg 95%
    21:00 +3°C° 1.5 mm 2 mps 737 mmHg 96%
    22:00 +4°C° 1.5 mm 1 mps 735 mmHg 96%
    23:00 +1°C° 1.3 mm 3 mps 736 mmHg 96%

    24 February, Monday

    Time Temperature Precipitation Wind Pressure Humidity
    00:00 -1°C° 1.3 mm 6 mps 737 mmHg 96%
    01:00 -2°C° 1.3 mm 8 mps 738 mmHg 95%
    02:00 -2°C° 0.4 mm 8 mps 740 mmHg 95%
    03:00 -3°C° 0.4 mm 9 mps 741 mmHg 95%
    04:00 -3°C° 0.4 mm 9 mps 742 mmHg 94%
    05:00 -1°C° 0.1 mm 9 mps 743 mmHg 91%
    06:00 -1°C° 0.1 mm 9 mps 745 mmHg 87%
    07:00 -1°C° 0.1 mm 9 mps 746 mmHg 83%
    08:00 -1°C° 0.1 mm 9 mps 746 mmHg 84%
    09:00 0°C° 0.1 mm 8 mps 747 mmHg 84%
    10:00 0°C° 0.1 mm 8 mps 748 mmHg 84%
    11:00 +1°C° 0 mm 8 mps 749 mmHg 76%
    12:00 +3°C° 0 mm 7 mps 749 mmHg 68%
    13:00 +4°C° 0 mm 7 mps 750 mmHg 60%
    14:00 +4°C° 0 mm 6 mps 750 mmHg 62%
    15:00 +5°C° 0 mm 5 mps 750 mmHg 64%
    16:00 +5°C° 0 mm 5 mps 750 mmHg 65%
    17:00 +4°C° 0 mm 4 mps 751 mmHg 70%
    18:00 +3°C° 0 mm 4 mps 751 mmHg 75%
    19:00 +2°C° 0 mm 3 mps 751 mmHg 79%
    20:00 +1°C° 0 mm 3 mps 751 mmHg 81%
    21:00 +1°C° 0 mm 3 mps 751 mmHg 84%
    22:00 +1°C° 0 mm 3 mps 751 mmHg 86%
    23:00 +1°C° 0 mm 3 mps 750 mmHg 83%

    25 February, Tuesday

    Time Temperature Precipitation Wind Pressure Humidity
    00:00 0°C° 0 mm 4 mps 749 mmHg 81%
    01:00 0°C° 0 mm 4 mps 749 mmHg 79%
    02:00 0°C° 0 mm 5 mps 748 mmHg 75%
    03:00 +1°C° 0 mm 5 mps 747 mmHg 72%
    04:00 +1°C° 0 mm 6 mps 746 mmHg 69%
    05:00 +1°C° 0.1 mm 6 mps 745 mmHg 69%
    06:00 +2°C° 0.1 mm 6 mps 745 mmHg 69%
    07:00 +3°C° 0.1 mm 6 mps 744 mmHg 69%
    08:00 +4°C° 0 mm 7 mps 744 mmHg 69%
    09:00 +5°C° 0 mm 8 mps 744 mmHg 69%
    10:00 +6°C° 0 mm 8 mps 743 mmHg 69%
    11:00 +7°C° 0 mm 8 mps 743 mmHg 69%
    12:00 +9°C° 0 mm 8 mps 743 mmHg 68%
    13:00 +9°C° 0 mm 7 mps 742 mmHg 67%
    14:00 +9°C° 0 mm 6 mps 742 mmHg 69%
    15:00 +9°C° 0 mm 5 mps 741 mmHg 71%
    16:00 +8°C° 0 mm 5 mps 741 mmHg 73%
    17:00 +8°C° 0.2 mm 5 mps 741 mmHg 76%
    18:00 +7°C° 0.2 mm 5 mps 741 mmHg 79%
    19:00 +7°C° 0.2 mm 6 mps 741 mmHg 82%
    20:00 +7°C° 0.3 mm 6 mps 741 mmHg 82%
    21:00 +7°C° 0.3 mm 6 mps 740 mmHg 83%
    22:00 +5°C° 0.3 mm 6 mps 740 mmHg 83%
    23:00 +6°C° 0.5 mm 5 mps 740 mmHg 85%

    26 February, Wednesday

    Time Temperature Precipitation Wind Pressure Humidity
    00:00 +6°C° 0.5 mm 5 mps 739 mmHg 87%
    01:00 +6°C° 0.5 mm 4 mps 739 mmHg 90%
    02:00 +5°C° 0.6 mm 4 mps 739 mmHg 86%
    03:00 +5°C° 0.6 mm 3 mps 739 mmHg 83%
    04:00 +5°C° 0.6 mm 2 mps 738 mmHg 80%
    05:00 +5°C° 0.1 mm 2 mps 738 mmHg 80%
    06:00 +4°C° 0.1 mm 2 mps 738 mmHg 80%
    07:00 +4°C° 0.1 mm 2 mps 738 mmHg 80%
    08:00 +4°C° 0 mm 2 mps 738 mmHg 77%
    09:00 +4°C° 0 mm 3 mps 739 mmHg 74%
    10:00 +5°C° 0 mm 3 mps 739 mmHg 71%
    11:00 +4°C° 0.1 mm 3 mps 738 mmHg 72%
    12:00 +4°C° 0.1 mm 4 mps 738 mmHg 73%
    13:00 +4°C° 0.1 mm 4 mps 738 mmHg 74%
    14:00 +4°C° 0 mm 4 mps 738 mmHg 71%
    15:00 +3°C° 0 mm 5 mps 738 mmHg 67%
    16:00 +5°C° 0 mm 5 mps 737 mmHg 63%
    17:00 +3°C° 0 mm 5 mps 738 mmHg 65%
    18:00 +2°C° 0 mm 5 mps 738 mmHg 67%
    19:00 +2°C° 0 mm 5 mps 738 mmHg 69%
    20:00 +1°C° 0 mm 5 mps 738 mmHg 71%
    21:00 +1°C° 0 mm 5 mps 738 mmHg 72%
    22:00 0°C° 0 mm 5 mps 739 mmHg 73%
    23:00 0°C° 0 mm 5 mps 739 mmHg 73%
    Show more